Content
SEND FEEDBACK

Daily
Averages
Monthly
Summary
Mexico

LEONA VICARIO, QUINTANA ROO


Home > North America > Mexico > Quintana Roo
Elevation: 26 feet     Latitude: 20 59N     Longitude: 087 12W

WEATHER
 
SELECT A DAY
Number of Records: 163,677;   Date Range: 1/1/95 - 7/23/14
 
SHARE

PRINT THIS DATA

[ ← Previous Day ]
WEATHER ALMANAC - OCTOBER 12, 2013
[ Next Day → ]
[ °C ]   °F
Weather ElementAverageHighLow
Temperature81.2 °F87.8 °F (11:40 am)71.6 °F (6:42 am)
Dewpoint74 °F77 °F (3:40 pm)71.6 °F (5:46 am)
Humidity79.6 %100 % (4:45 am)58 % (11:40 am)
Barometer29.95 in30.00 in (10:47 pm)29.91 in (3:40 am)
Wind Speed5.3 mph10.4 mph (2:43 pm)
Weather ElementAverage
Visibility7 mi
Wind DirectionENE (72.6 °)

Weather ElementTotal
Precipitation---
Cooling Degree Days14.7 (Base 65)
Growing Degree Days29.7 (Base 50)
Averaged from 23 records on October 12, 2013
WEATHER CONDITIONS BREAKOUT
WIND DIRECTION BREAKOUT
WEATHER BY HOUR - OCTOBER 12, 2013
[ °C ]   °F
Local TimeTemperatureDewpointHumidityBarometerVisibilityWind DirectionWind SpeedGust SpeedPrecipitationEventsConditions
1:44 AM78.8 °F73.4 °F83 %29.93 in7.0 miEast (80°)2.3 mphScattered Clouds
2:40 AM78.8 °F73.4 °F83 %29.92 in7.0 miNE (50°)2.3 mphScattered Clouds
3:40 AM75.2 °F73.4 °F94 %29.91 in7.0 miCalmScattered Clouds
4:45 AM73.4 °F73.4 °F100 %29.93 in7.0 miCalmScattered Clouds
5:46 AM73.4 °F71.6 °F94 %29.93 in7.0 miCalmPartly Cloudy
6:42 AM71.6 °F71.6 °F100 %29.95 in7.0 miCalmScattered Clouds
7:51 AM75.2 °F73.4 °F94 %29.96 in7.0 miNorth (350°)2.3 mphScattered Clouds
8:42 AM84.2 °F75.2 °F74 %29.98 in7.0 miEast (80°)5.8 mphScattered Clouds
9:42 AM86.0 °F75.2 °F70 %29.98 in7.0 miEast (100°)4.6 mphMostly Cloudy
10:42 AM86.0 °F73.4 °F66 %29.99 in7.0 miEast (100°)6.9 mphMostly Cloudy
11:40 AM87.8 °F71.6 °F58 %29.98 in7.0 miESE (110°)6.9 mphScattered Clouds
12:40 PM87.8 °F75.2 °F66 %29.96 in7.0 miESE (110°)9.2 mphMostly Cloudy
1:44 PM86.0 °F75.2 °F70 %29.94 in7.0 miENE (70°)9.2 mphScattered Clouds
2:43 PM87.8 °F73.4 °F62 %29.92 in7.0 miENE (70°)10.4 mphPartly Cloudy
3:40 PM86.0 °F77.0 °F74 %29.92 in7.0 miENE (60°)6.9 mphMostly Cloudy
4:43 PM84.2 °F75.2 °F74 %29.92 in7.0 miENE (70°)8.1 mphScattered Clouds
5:42 PM82.4 °F75.2 °F79 %29.93 in7.0 miENE (70°)4.6 mphPartly Cloudy
6:55 PM80.6 °F75.2 °F84 %29.94 in7.0 miENE (60°)4.6 mphPartly Cloudy
7:45 PM80.6 °F75.2 °F84 %29.96 in7.0 miNE (50°)6.9 mphPartly Cloudy
8:44 PM80.6 °F75.2 °F84 %29.98 in7.0 miENE (60°)5.8 mphScattered Clouds
9:48 PM80.6 °F73.4 °F79 %29.96 in7.0 miNE (50°)10.4 mphScattered Clouds
10:47 PM80.6 °F73.4 °F79 %30.00 in7.0 miENE (60°)9.2 mphScattered Clouds
11:46 PM80.6 °F73.4 °F79 %29.99 in7.0 miENE (70°)5.8 mphPartly Cloudy
Hourly data recorded from MMUN, located miles away from Leona Vicario, Quintana Roo







STORIES FROM OUR PARTNERS